国际通讯卫星 2-F4星 (INTELSAT 2-F4)

导读

INTELSAT 2-F4是国际通信卫星组织(ITSO)在1967年9月28日发射的第二代国际通信卫星,作为早期全球卫星通信网络的重要组成部分,它承担着跨洋洲际通信传输任务,服务于全球语音、电报等早期通信业务,拓展了国际通信卫星系统的覆盖范围与通信容量,推动了全球卫星通信基础设施的早期发展。

基本信息
目录编号:
2969
目录名称:
INTELSAT 2-F4
国际标识:
1967-094A
轨道中心:
EARTH
卫星名称:
国际通讯卫星 2-F4星
卫星全名:
国际通讯卫星 2-F4星 (INTELSAT 2-F4)
卫星状态:
在轨 (已飞行21446 天)
发射日期:
1967-09-28 UTC
国别 :
(ITSO)
星等 :
--
轨道信息
数据来源 国际轨道数据 AOE轨道数据
星历时间 2026-06-16T13:26:23+0800
8小时前
查看轨道信息
2026-06-13T14:00:00+0800
3天前
查看轨道信息
半长轴 42138.201km 42137.809km
偏心率 0.0010158 0.0010045
轨道倾角 4.074° 4.068°
近地点辐角 141.365° 141.779°
升交点赤经 74.213° 74.241°
平近点角 54.152° 58.158°
近地点 35717.26km 35717.344km
远地点 35802.868km 35802km
周期 1434.742分钟 1434.722分钟
每日圈数 1.003665 1.003679
详细信息
卫星平台:
HS-303A
平衡模式:
自旋稳定
覆盖范围:
全球
运营商:
国际卫星通信公司
运营商所在国:
美国
制造商(研发单位):
休斯公司
制造商所在国:
美国
使用方式:
暂无
卫星简介
从1965年4月至1984年3月,国际通信卫星组织发射了5代、6种不同性能的卫星共计35颗,除6颗卫星因运载火箭和远地点发动机故障而发射失败外,其余29颗卫星均被送到了预定的静止轨道位置。1984年8月前后,国际通信卫星组织利用部署在大西洋、太平洋、印度洋上空的15颗国际通信卫星,为遍布世界各地170多个国家或地区提供电话、电传、电报、电视和数据传输等电信业务;该卫星已退役。
2D轨道图
3D轨道图
轨道高度分析图
轨道倾角分析图
轨道综合分析图
查看轨道综合分析图